Belvidere, Illinois, United States (61008)
Lat: 42.26N, Lon: 88.84W
Wx Zone: ILZ004
Local Info
Past Weather Observations for Friday, August 28, 2015

NOTE: This archive is for the closest National Weather Service station to Belvidere. Information may differ from the station used for current weather conditions.

Click here for Long-term Archive

Time Weather Temperature Dewpoint Humidity Pressure Winds Precip Visibility
23:54
Overcast
Rain
64°F / 18°C 63°F / 17°C 94% 30.06 in
(1018 mb)
SE 11.5 mph
(SE 19 kph)
0.12 in
(3.05 mm)
4SM
22:54
Overcast
Rain
64°F / 18°C 63°F / 17°C 94% 30.09 in
(1019 mb)
SE 8.1 mph
(SE 13 kph)
0.04 in
(1.02 mm)
5SM
21:54
Overcast
Light Rain
66°F / 19°C 61°F / 16°C 83% 30.09 in
(1019 mb)
E 12.7 mph
(E 20 kph)
0.04 in
(1.02 mm)
10SM
20:54
Overcast
Light Rain
68°F / 20°C 61°F / 16°C 78% 30.06 in
(1018 mb)
ENE 12.7 mph
(ENE 20 kph)
0.00 in
(0.00 mm)
10SM
19:54
Overcast
68°F / 20°C 61°F / 16°C 78% 30.06 in
(1018 mb)
E 10.4 mph
(E 17 kph)
- 10SM
18:54
Overcast
68°F / 20°C 61°F / 16°C 78% 30.06 in
(1018 mb)
ENE 9.2 mph
(ENE 15 kph)
- 10SM
17:54
Overcast
68°F / 20°C 61°F / 16°C 78% 30.06 in
(1018 mb)
E 8.1 mph
(E 13 kph)
- 10SM
16:54
Overcast
68°F / 20°C 63°F / 17°C 83% 30.09 in
(1019 mb)
E 6.9 mph
(E 11 kph)
- 10SM
15:54
Overcast
70°F / 21°C 61°F / 16°C 73% 30.09 in
(1019 mb)
E 4.6 mph
(E 7 kph)
- 10SM
14:54
Overcast
70°F / 21°C 63°F / 17°C 78% 30.09 in
(1019 mb)
ESE 4.6 mph
(ESE 7 kph)
- 10SM
13:54
Overcast
70°F / 21°C 61°F / 16°C 73% 30.09 in
(1019 mb)
SE 5.8 mph
(SE 9 kph)
0.00 in
(0.00 mm)
10SM
12:54
Overcast
70°F / 21°C 61°F / 16°C 73% 30.12 in
(1020 mb)
SSE 6.9 mph
(SSE 11 kph)
- 10SM
11:54
Overcast
70°F / 21°C 61°F / 16°C 73% 30.15 in
(1021 mb)
S 5.8 mph
(S 9 kph)
- 10SM
10:54
Overcast
68°F / 20°C 61°F / 16°C 78% 30.15 in
(1021 mb)
S 5.8 mph
(S 9 kph)
- 10SM
09:54
Overcast
66°F / 19°C 61°F / 16°C 83% 30.15 in
(1021 mb)
SSE 5.8 mph
(SSE 9 kph)
- 10SM
08:54
Overcast
64°F / 18°C 59°F / 15°C 83% 30.15 in
(1021 mb)
SSE 5.8 mph
(SSE 9 kph)
- 10SM
07:54
Overcast
64°F / 18°C 57°F / 14°C 78% 30.15 in
(1021 mb)
SSE 4.6 mph
(SSE 7 kph)
- 10SM
06:54
Overcast
63°F / 17°C 57°F / 14°C 83% 30.15 in
(1021 mb)
SSE 3.5 mph
(SSE 6 kph)
0.00 in
(0.00 mm)
8SM
05:54
Overcast
Light Rain
61°F / 16°C 55°F / 13°C 83% 30.15 in
(1021 mb)
Calm 0.00 in
(0.00 mm)
8SM
04:54
Overcast
61°F / 16°C 55°F / 13°C 83% 30.12 in
(1020 mb)
Calm - 8SM
03:54
Overcast
61°F / 16°C 55°F / 13°C 83% 30.12 in
(1020 mb)
S 4.6 mph
(S 7 kph)
- 7SM
02:54
Overcast
61°F / 16°C 55°F / 13°C 83% 30.12 in
(1020 mb)
Calm - 7SM
01:54
Mostly Cloudy
59°F / 15°C 55°F / 13°C 88% 30.12 in
(1020 mb)
S 3.5 mph
(S 6 kph)
- 7SM
00:54
Mostly Cloudy
57°F / 14°C 54°F / 12°C 88% 30.12 in
(1020 mb)
S 3.5 mph
(S 6 kph)
- 7SM
Time Weather Temperature Dewpoint Humidity Pressure Winds Precip Visibility


Weather for websites

WeatherForYou.com, LLC is not responsible for any damages or problems caused by this service. Current weather conditions are obtained from the closest station including government and personal stations which may have varying degrees of accuracy. Weather forecasts are derived from the NOAA NDFD. Like all things, this site belongs to Jesus Christ... He just trusts us to maintain it. If you have any questions or comments email webmaster@weatherforyou.com

Copyright © 2015, WeatherForYou.com LLC. All rights reserved.